Weather History for KW43 - February, 2014

Change the Weather History Date:

Thursday, February 27, 2014

  Actual Average (KEFC) Record (KEFC)
Temperature  
Mean Temperature 24 °F -  
Max Temperature 42 °F 47 °F 69 °F (1980)
Min Temperature 6 °F 20 °F -11 °F (1960)
Degree Days  
Heating Degree Days 41    
Moisture  
Dew Point 12 °F    
Average Humidity 57    
Maximum Humidity 79    
Minimum Humidity 37    
Precipitation  
Precipitation 0.00 in - - ()
Sea Level Pressure  
Sea Level Pressure 29.61 in    
Wind  
Wind Speed 4 mph (SW)    
Max Wind Speed 9 mph    
Max Gust Speed -    
Visibility 10 miles    
Events      
Averages and records for this station are not official NWS values.
T = Trace of Precipitation, MM = Missing Value Source: NWS Daily Summary

Daily Weather History Graph

Daily Weather History Graph

Search for Another Location

Airport or City:

Trip Planner

Search our weather history database for the weather conditions in past years. The results will help you decide how hot, cold, wet, or windy it might be!

Date:

Astronomy

Feb. 27, 2014 Rise Set
Actual Time 6:39 AM MST 5:43 PM MST
Civil Twilight 6:09 AM MST 6:12 PM MST
Nautical Twilight 5:36 AM MST 6:46 PM MST
Astronomical Twilight 5:02 AM MST 7:20 PM MST
Moon 5:16 AM MST (2/27) 4:10 PM MST (2/27)
Length of Visible Light 12h 03m
Length of Day
11h 04m
Waning Crescent, 4% of the Moon is Illuminated
Feb 27
Waning Crescent
Mar 1
New
Mar 8
First Quarter
Mar 16
Full
Mar 23
Last Quarter

Hourly Weather History & Observations

Time (MST) Temp. Windchill Dew Point Humidity Pressure Visibility Wind Dir Wind Speed Gust Speed Precip Events Conditions
12:15 AM 12.2 °F 2.9 °F 3.2 °F 67% 29.86 in 10.0 mi SSW 5.8 mph - N/A   Clear
12:35 AM 12.2 °F 2.9 °F 3.2 °F 67% 29.86 in 10.0 mi SSW 5.8 mph - N/A   Clear
12:55 AM 8.6 °F - 3.2 °F 79% 29.86 in 10.0 mi North - - N/A   Clear
1:15 AM 14.0 °F - 5.0 °F 67% 29.85 in 10.0 mi Calm Calm - N/A   Clear
1:35 AM 14.0 °F - 3.2 °F 62% 29.84 in 10.0 mi North - - N/A   Clear
1:55 AM 10.4 °F 2.2 °F 3.2 °F 73% 29.83 in 10.0 mi SSW 4.6 mph - N/A   Clear
2:15 AM 10.4 °F 4.0 °F 3.2 °F 73% 29.82 in 10.0 mi South 3.5 mph - N/A   Clear
2:35 AM 14.0 °F - 3.2 °F 62% 29.80 in 10.0 mi Calm Calm - N/A   Clear
2:55 AM 8.6 °F - 1.4 °F 73% 29.79 in 10.0 mi North - - N/A   Clear
3:15 AM 8.6 °F - 1.4 °F 73% 29.78 in 10.0 mi North - - N/A   Clear
3:35 AM 8.6 °F - 1.4 °F 73% 29.78 in 10.0 mi North - - N/A   Clear
3:55 AM 6.8 °F -5.9 °F -0.4 °F 72% 29.77 in 10.0 mi South 8.1 mph - N/A   Clear
4:15 AM 6.8 °F - -0.4 °F 72% 29.76 in 10.0 mi Calm Calm - N/A   Clear
4:35 AM 6.8 °F -4.8 °F -0.4 °F 72% 29.75 in 10.0 mi SSW 6.9 mph - N/A   Clear
4:55 AM 8.6 °F - -0.4 °F 67% 29.75 in 10.0 mi North - - N/A   Clear
5:15 AM 8.6 °F - -0.4 °F 67% 29.74 in 10.0 mi Calm Calm - N/A   Clear
5:35 AM 10.4 °F - 1.4 °F 67% 29.72 in 10.0 mi Calm Calm - N/A   Clear
5:55 AM 8.6 °F - -0.4 °F 67% 29.71 in 10.0 mi North - - N/A   Clear
6:15 AM 8.6 °F - -0.4 °F 67% 29.71 in 10.0 mi Calm Calm - N/A   Clear
6:35 AM 8.6 °F - -2.2 °F 62% 29.69 in 10.0 mi Calm Calm - N/A   Clear
6:55 AM 12.2 °F 4.3 °F -0.4 °F 57% 29.70 in 10.0 mi SSW 4.6 mph - N/A   Clear
7:15 AM 12.2 °F 1.7 °F -0.4 °F 57% 29.69 in 10.0 mi South 6.9 mph - N/A   Clear
7:35 AM 10.4 °F -0.4 °F -0.4 °F 62% 29.69 in 10.0 mi South 6.9 mph - N/A   Scattered Clouds
7:55 AM 12.2 °F 2.9 °F -0.4 °F 57% 29.68 in 10.0 mi SSW 5.8 mph - N/A   Clear
8:15 AM 15.8 °F - -0.4 °F 49% 29.68 in 10.0 mi North - - N/A   Clear
8:35 AM 19.4 °F 11.5 °F 1.4 °F 46% 29.67 in 10.0 mi NNE 5.8 mph - N/A   Clear
8:55 AM 19.4 °F - 3.2 °F 49% 29.66 in 10.0 mi Calm Calm - N/A   Clear
9:15 AM 23.0 °F - 5.0 °F 46% 29.65 in 10.0 mi North - - N/A   Mostly Cloudy
9:35 AM 23.0 °F - 5.0 °F 46% 29.64 in 10.0 mi Calm Calm - N/A   Overcast
9:55 AM 26.6 °F - 6.8 °F 43% 29.63 in 10.0 mi Calm Calm - N/A   Overcast
10:15 AM 26.6 °F - 6.8 °F 43% 29.63 in 10.0 mi Calm Calm - N/A   Overcast
10:35 AM 30.2 °F - 6.8 °F 37% 29.62 in 10.0 mi Calm Calm - N/A   Overcast
10:55 AM 30.2 °F - 8.6 °F 40% 29.61 in 10.0 mi Calm Calm - N/A   Overcast
11:15 AM 30.2 °F - 12.2 °F 47% 29.60 in 10.0 mi Calm Calm - N/A   Overcast
11:35 AM - - - N/A% 29.59 in 10.0 mi Calm Calm - N/A   Overcast
11:55 AM 32.0 °F 27.5 °F 12.2 °F 44% 29.58 in 10.0 mi North 4.6 mph - N/A   Overcast
12:15 PM 32.0 °F 28.7 °F 14.0 °F 48% 29.57 in 10.0 mi North 3.5 mph - N/A   Overcast
12:35 PM 33.8 °F - 14.0 °F 44% 29.56 in 10.0 mi North - - N/A   Overcast
12:55 PM 35.6 °F - 12.2 °F 38% 29.54 in 10.0 mi Calm Calm - N/A   Overcast
1:15 PM 35.6 °F - 19.4 °F 52% 29.54 in 10.0 mi Calm Calm - N/A   Overcast
1:35 PM 35.6 °F 32.8 °F 17.6 °F 48% 29.53 in 10.0 mi North 3.5 mph - N/A   Overcast
1:55 PM 37.4 °F - 17.6 °F 45% 29.53 in 10.0 mi Calm Calm - N/A   Overcast
2:15 PM 39.2 °F - 21.2 °F 49% 29.52 in 10.0 mi Calm Calm - N/A   Overcast
2:35 PM 39.2 °F - 21.2 °F 49% 29.51 in 10.0 mi Calm Calm - N/A   Mostly Cloudy
2:55 PM 41.0 °F 35.8 °F 17.6 °F 39% 29.51 in 10.0 mi WSW 8.1 mph - N/A   Mostly Cloudy
3:15 PM 42.8 °F 37.5 °F 19.4 °F 39% 29.51 in 10.0 mi WSW 9.2 mph - N/A   Scattered Clouds
3:35 PM 41.0 °F 35.8 °F 19.4 °F 42% 29.50 in 10.0 mi WSW 8.1 mph - N/A   Scattered Clouds
3:55 PM 41.0 °F 36.4 °F 19.4 °F 42% 29.50 in 10.0 mi WSW 6.9 mph - N/A   Scattered Clouds
4:15 PM 37.4 °F - 21.2 °F 52% 29.50 in 10.0 mi Calm Calm - N/A   Mostly Cloudy
4:35 PM 37.4 °F - 23.0 °F 56% 29.49 in 10.0 mi Calm Calm - N/A   Overcast
4:55 PM 35.6 °F - 21.2 °F 56% 29.49 in 10.0 mi Calm Calm - N/A   Overcast
5:15 PM 37.4 °F 33.8 °F 21.2 °F 52% 29.49 in 10.0 mi WSW 4.6 mph - N/A   Overcast
5:35 PM 39.2 °F 37.0 °F 21.2 °F 49% 29.49 in 10.0 mi WSW 3.5 mph - N/A   Overcast
5:55 PM 37.4 °F 32.8 °F 21.2 °F 52% 29.49 in 10.0 mi WSW 5.8 mph - N/A   Mostly Cloudy
6:15 PM 37.4 °F 32.8 °F 21.2 °F 52% 29.49 in 10.0 mi WSW 5.8 mph - N/A   Scattered Clouds
6:35 PM 35.6 °F 29.9 °F 21.2 °F 56% 29.50 in 10.0 mi WSW 6.9 mph - N/A   Clear
6:55 PM 35.6 °F 31.7 °F 21.2 °F 56% 29.50 in 10.0 mi West 4.6 mph - N/A   Scattered Clouds
7:15 PM 33.8 °F 28.6 °F 23.0 °F 65% 29.50 in 10.0 mi WSW 5.8 mph - N/A   Scattered Clouds
7:35 PM 35.6 °F 29.2 °F 21.2 °F 56% 29.49 in 10.0 mi SW 8.1 mph - N/A   Mostly Cloudy
7:55 PM 33.8 °F 27.7 °F 21.2 °F 60% 29.49 in 10.0 mi SW 6.9 mph - N/A   Mostly Cloudy
8:15 PM 33.8 °F 27.0 °F 21.2 °F 60% 29.49 in 10.0 mi SW 8.1 mph - N/A   Mostly Cloudy
8:35 PM 33.8 °F 28.6 °F 21.2 °F 60% 29.49 in 10.0 mi WSW 5.8 mph - N/A   Mostly Cloudy
8:55 PM 33.8 °F 27.7 °F 21.2 °F 60% 29.49 in 10.0 mi WSW 6.9 mph - N/A   Overcast
9:15 PM 33.8 °F 27.0 °F 21.2 °F 60% 29.49 in 10.0 mi SW 8.1 mph - N/A   Overcast
9:35 PM 35.6 °F 29.2 °F 21.2 °F 56% 29.49 in 10.0 mi SW 8.1 mph - N/A   Overcast
9:55 PM 33.8 °F 27.0 °F 21.2 °F 60% 29.48 in 10.0 mi SW 8.1 mph - N/A   Overcast
10:15 PM 35.6 °F 28.6 °F 21.2 °F 56% 29.47 in 10.0 mi SW 9.2 mph - N/A   Overcast
10:35 PM 35.6 °F 28.6 °F 21.2 °F 56% 29.47 in 10.0 mi WSW 9.2 mph - N/A   Mostly Cloudy
10:55 PM 33.8 °F 27.7 °F 21.2 °F 60% 29.47 in 10.0 mi SW 6.9 mph - N/A   Scattered Clouds
11:15 PM 32.0 °F 24.8 °F 21.2 °F 64% 29.47 in 10.0 mi WSW 8.1 mph - N/A   Mostly Cloudy
11:35 PM 32.0 °F 28.7 °F 21.2 °F 64% 29.49 in 10.0 mi West 3.5 mph - N/A   Overcast
11:55 PM 32.0 °F 28.7 °F 21.2 °F 64% 29.49 in 10.0 mi West 3.5 mph - N/A   Overcast